LEMUR-2-DAISY-HARPER (43889 NORAD) Tracking and Keplerian Element Data

This shows tracking and keplerian element data for the satellite.

Feedback or suggestion? Click here.




ElementValue
Catalog43889
NameLEMUR-2-DAISY-HARPER
Epoch Orbit444
Epoch Day25.96297251
Epoch Year2019
RAAN296.0391
Inclination97.7301
Eccentricity0.0012587
Argument of Perigee134.8503
Mean Anonmoly225.3743
Mean Motion14.96754277
Decay Rate1.264E-05
L11 43889U 18111P 19025.96297251 .00001264 00000-0 11547-3 0 9996
L22 43889 97.7301 296.0391 0012587 134.8503 225.3743 14.96754277 4448

Live tracking and technical data element details for LEMUR-2-DAISY-HARPER (NORAD 43889). LEMUR-2-DAISY-HARPER can be tracked NOW for your location showing map with azimuth and elevation plus other details from your city location.

Track the satellite on the map from your city or location and see movement details for azimuth, elevation, latitude, longitude, range, height, and movement on the map or in text.







IsCatalogInMostPopularTable: catalog: 43889, numindb: 40
Update: records affected: 1



GetName: 43889 LEMUR-2-DAISY-HARPER

Hit Count: updated at: Thu, 23 May 2019 14:41:21 GMT